Flag for Norway Weather past 2 weeks in Sarpsborg, Norway

Now
52 °F

Passing clouds.


Feels Like: 49 °F
Forecast: 46 / 58 °F
Wind: 7 mph from Southwest

Location: Rygge

Current Time: May 24, 2015 at 10:20:37 AM

Latest Report: May 24, 2015 at 9:50 AM


Visibility: N/A

Pressure: 29.95 "Hg

Humidity: 50%

Dew point: 34 °F

Location of SarpsborgLocation

Historic Weather in Sarpsborg — Graph

°F

Sarpsborg temperature yesterday

Maximum temperature yesterday: 64 °F (at 4:50 PM)
Minimum temperature yesterday: 43 °F (at 2:50 AM)
Average temperature yesterday: 54 °F

Past Weeks' High & Low Weather Summary

 TemperatureHumidityPressure
High64 °F (May 23, 4:50 PM)100% (May 10, 12:50 AM)30.15 "Hg (May 10, 12:50 AM)
Low34 °F (May 18, 4:50 AM)29% (May 14, 6:50 PM)29.45 "Hg (May 19, 6:50 AM)
Average49 °F72%29.83 "Hg
* Reported May 9 8:20 AM — May 24 8:50 AM, Sarpsborg, Weather by CustomWeather, © 2015

Note: Actual official high and low records may vary slightly from our data, if they occured in-between our weather recording intervals... More about our weather records

Advertising

Sarpsborg weather history for previous 24 hours

 ConditionsComfort  
Time TempWeatherWind HumidityBarometerVisibility
8:50 AM
Sun, May 24
50 °FSunny.2 mph54%29.92 "Hg10 mi
8:20 AM50 °FSunny.1 mph50%29.92 "Hg10 mi
7:50 AM48 °FPassing clouds.3 mph58%29.92 "HgN/A
7:20 AM45 °FSunny.2 mph71%29.92 "Hg10 mi
6:50 AM43 °FSunny.2 mph71%29.95 "Hg10 mi
6:20 AM39 °FSunny.2 mph87%29.92 "Hg10 mi
5:50 AM37 °FChilly.3 mph87%29.92 "HgN/A
5:20 AM36 °FChilly.3 mph87%29.95 "HgN/A
4:50 AM37 °FChilly.2 mph81%29.95 "HgN/A
4:20 AM37 °FChilly.2 mph87%29.95 "HgN/A
3:50 AM37 °FChilly.1 mph81%29.95 "HgN/A
3:20 AM39 °FChilly.2 mph81%29.95 "HgN/A
2:50 AM43 °FQuite cool.1 mph66%29.95 "HgN/A
2:20 AM41 °FQuite cool.1 mph70%29.95 "HgN/A
1:50 AM46 °FCool.3 mph57%29.95 "HgN/A
1:20 AM46 °FCool.5 mph57%29.95 "HgN/A
12:50 AM48 °FCool.8 mph54%29.95 "HgN/A
12:20 AM48 °FCool.7 mph50%29.95 "HgN/A
11:50 PM
Sat, May 23
48 °FCool.8 mph54%29.95 "HgN/A
11:20 PM50 °FClear.7 mph50%29.95 "Hg10 mi
10:50 PM52 °FSunny.6 mph44%29.95 "Hg10 mi
10:20 PM52 °FSunny.7 mph47%29.95 "Hg10 mi
9:50 PM54 °FSunny.7 mph41%29.95 "Hg10 mi
9:20 PM55 °FSunny.8 mph38%29.92 "Hg10 mi
8:50 PM55 °FSunny.12 mph38%29.92 "Hg10 mi
8:20 PM57 °FPassing clouds.10 mph33%29.92 "HgN/A
7:50 PM59 °FSunny.13 mph31%29.92 "Hg10 mi
7:20 PM61 °FPassing clouds.14 mph31%29.92 "HgN/A
6:50 PM63 °FSunny.12 mph32%29.92 "Hg10 mi
6:20 PM63 °FSunny.10 mph30%29.92 "Hg10 mi
5:50 PM63 °FPassing clouds.9 mph32%29.92 "HgN/A
5:20 PM63 °FPassing clouds.9 mph32%29.92 "HgN/A
4:50 PM64 °FPassing clouds.6 mph32%29.92 "HgN/A
4:20 PM63 °FPassing clouds.8 mph37%29.95 "HgN/A
3:50 PM63 °FSunny.10 mph37%29.95 "Hg10 mi
3:20 PM63 °FSunny.10 mph37%29.92 "Hg10 mi
2:50 PM63 °FPassing clouds.7 mph32%29.92 "HgN/A
2:20 PM63 °FSunny.6 mph37%29.92 "Hg10 mi
1:50 PM63 °FPassing clouds.7 mph32%29.92 "HgN/A
1:20 PM61 °FPassing clouds.6 mph34%29.92 "HgN/A
12:50 PM61 °FPassing clouds.9 mph31%29.95 "HgN/A
12:20 PM61 °FPassing clouds.8 mph36%29.95 "HgN/A
11:50 AM57 °FSunny.10 mph39%29.92 "Hg10 mi
11:20 AM59 °FPassing clouds.12 mph39%29.92 "HgN/A
10:50 AM57 °FPassing clouds.9 mph41%29.92 "HgN/A
10:20 AM57 °FPassing clouds.10 mph44%29.89 "HgN/A
Weather by CustomWeather, © 2015

See weather overviewHow to use our weather pages